Terminal Aerodrome Forecast
Issued by NWS

Home | Current Version | Previous Version | Text Only | Print | Product List | Glossary On
Versions: 1 2 3 4 5 6 7 8 9 10 11 12 13 14 15 16 17 18 19 20 21 22 23
000
FTUS45 KBOI 290525
TAFJER
TAF
KJER 290525Z 2906/3006 23010KT P6SM OVC100
     FM291800 23018KT P6SM OVC060
     FM300100 24015KT P6SM -SHRA SCT020 OVC040=

USA.gov is the U.S. government's official web portal to all federal, state and local government web resources and services.